[Iaude] MPEC J31: 2024 JF [a=1.25,e=0.39,i=1.1,H=28.3]

mpec at cfa.harvard.edu mpec at cfa.harvard.edu
Fri May 3 02:47:59 EDT 2024


M.P.E.C. 2024-J31                                   Issued 2024 May 3, 06:46 UT

     The Minor Planet Electronic Circulars contain information on unusual
         minor planets, routine data on comets and natural satellites,
         and occasional editorial announcements.  They are published
    on behalf of Division F of the International Astronomical Union by the
          Minor Planet Center, Smithsonian Astrophysical Observatory,
                          Cambridge, MA 02138, U.S.A.
			  
             Prepared using the Tamkin Foundation Computer Network

                              MPC at CFA.HARVARD.EDU
            URL https://www.minorplanetcenter.net/    ISSN 1523-6714

                                    2024 JF                                     


Observations:
     K24J00F* C2024 05 01.41894314 38 50.708-07 51 18.80         21.48wXEJ031F52
     K24J00F  C2024 05 01.44144614 38 47.849-07 50 06.93         21.64wXEJ031F52
     K24J00F  C2024 05 01.45272014 38 46.388-07 49 30.18         21.59wXEJ031F52
     K24J00F  C2024 05 01.50736214 38 39.495-07 46 29.17         21.31GVEJ031F51
     K24J00F  C2024 05 01.50801014 38 39.405-07 46 26.90         21.26GVEJ031F51
     K24J00F KC2024 05 02.18339514 38 24.09 -07 05 21.6          20.9 GVEJ031H21
     K24J00F KC2024 05 02.19193014 38 22.96 -07 04 45.9                VEJ031H21
     K24J00F KC2024 05 02.20075214 38 21.78 -07 04 08.3          21.2 GVEJ031H21
     K24J00F KC2024 05 02.25143514 38 21.016-07 00 02.38         21.95GVEJ031I52
     K24J00F KC2024 05 02.25386614 38 20.699-06 59 51.43               VEJ031I52
     K24J00F KC2024 05 02.25628414 38 20.350-06 59 40.70         21.67GVEJ031I52
     K24J00F KC2024 05 02.25745714 38 20.180-06 59 35.81         20.83GVEJ031I52
     K24J00F  C2024 05 02.39162814 38 13.327-06 48 38.04         21.12GVEJ031F51
     K24J00F KC2024 05 03.22914614 37 23.91 -05 29 54.3          21.2 GXEJ031858
     K24J00F KC2024 05 03.23955414 37 21.90 -05 28 42.1          20.9 GXEJ031858

Observer details:
858 Tebbutt Observatory, Edgewood.  Observer F. B. Zoltowski.  0.51-m f/8.1
    Schmidt-Cassegrain + CCD.
F51 Pan-STARRS 1, Haleakala.  Observers J. Herman, T. Lowe, P. Minguez, A.
    Schultz, I. Smith.  Measurers K. Chambers, T. de Boer, J. Fairlamb, H.
    Gao, M. Huber, C.-C. Lin, E. Magnier, Y. Ramanjooloo, R. Wainscoat, R.
    Weryk.  1.8-m Ritchey-Chretien + CCD.
F52 Pan-STARRS 2, Haleakala.  Observers J. Herman, T. Lowe, P. Minguez, A.
    Schultz, I. Smith.  Measurers K. Chambers, T. de Boer, J. Fairlamb, H.
    Gao, M. Huber, C.-C. Lin, E. Magnier, Y. Ramanjooloo, R. Wainscoat, R.
    Weryk.  1.8-m Ritchey-Chretien + CCD.
H21 Astronomical Research Observatory, Westfield.  Observer R. Holmes.
    Measurers T. Linder, R. Holmes, L. Horn.  0.81-m f/4.0 astrograph + CCD.
I52 Steward Observatory, Mt. Lemmon Station.  Observers V. F. Carvajal, G. J.
    Leonard.  Measurers T. Beuden, V. F. Carvajal, D. Fay, J. B. Fazekas, D.
    C. Fuls, A. R. Gibbs, A. D. Grauer, H. Groeller, J. K. Hogan, R. A.
    Kowalski, S. M. Larson, G. J. Leonard, D. Rankin, R. L. Seaman, F. C.
    Shelly, K. W. Wierzchos.  1.0-m prime focus + CCD.

Orbital elements:
2024 JF                                                  Earth MOID = 0.0028 AU
Epoch 2024 Mar. 31.0 TT = JDT 2460400.5                 MPC                     
M 293.32937              (2000.0)            P               Q                  
n   0.70305468     Peri.  253.55764     +0.62623911     +0.77947932             
a   1.2525930      Node    55.22570     -0.70796406     +0.57682407             
e   0.3907875      Incl.    1.07291     -0.32651410     +0.24430714             
P   1.40           H   28.33          G   0.15           U   8                  
Residuals in seconds of arc
240501 F52  0.2-  0.2+    240502 H21  0.2-  0.3-    240502 I52  0.2+  0.1+
240501 F52  0.2+  0.1+    240502 H21  0.5-  0.6-    240502 I52  0.2+  0.1-
240501 F52  0.1+  0.3+    240502 H21  0.7-  0.5-    240502 F51  0.0   0.2+
240501 F51  0.1+  0.1-    240502 I52  0.1-  0.5-    240503 858  0.6+  0.0
240501 F51  0.0   0.0     240502 I52  0.3+  0.1-    240503 858  0.0   0.1-

Ephemeris:
2024 JF                  a,e,i = 1.25, 0.39, 1                   q = 0.7631
Date    TT    R. A. (2000) Decl.     Delta      r    Elong.  Phase     V
2024 04 03    14 35 38.5 -11 55 06   0.2485  1.2263   152.9    21.8    26.8
...
2024 04 18    14 40 02.8 -11 22 44   0.1310  1.1318   166.4    12.1    24.9
...
2024 04 26    14 40 13.1 -10 17 09   0.07420 1.0799   172.9     6.6    23.3
...
2024 05 02    14 38 27.1 -07 14 48   0.03327 1.0407   171.9     7.9    21.6
2024 05 03    14 37 33.3 -05 51 32   0.02655 1.0342   170.2     9.6    21.2
2024 05 04    14 36 02.7 -03 32 38   0.01987 1.0277   167.4    12.4    20.6
...
2024 05 10    02 47 55.3 +20 35 07   0.02099 0.9889     5.6   174.2
...
2024 05 18    02 43 53.5 +14 24 46   0.07535 0.9386    14.3   164.6
...
2024 06 02    02 48 47.4 +13 40 38   0.1864  0.8538    27.8   146.3    32.1

A. U. Tomatic                (C) Copyright 2024 MPC           M.P.E.C. 2024-J31





More information about the Iaude mailing list